Location: Quebec
(46.8000°N, 71.2500°W)
Time: 00:58:33
(UTC-04:00)

Envisat - Pass Details

Date: 13 October 2017
Orbit: 764 x 766 km, 98.2° (Epoch: 20 October)

Event Time Altitude Azimuth Distance (km) Brightness Sun altitude
Exits shadow 19:16:46 20° 92° (E) 1,708 4.1 -13.7°
Maximum altitude 19:18:32 24° 62° (ENE) 1,534 4.1 -14.0°
Drops below altitude 10° 19:22:34 10° 10° (N) 2,313 5.4 -14.7°
Sets 19:25:14 0° 357° (N) 3,243 6.3 -15.2°
